Regional Weather Roundup
Issued by NWS

Home | Current Version | Previous Version | Graphics & Text | Print | Product List | Glossary On
Versions: 1 2 3 4 5 6 7 8 9 10 11 12 13 14 15 16 17 18 19 20 21 22 23 24 25 26 27 28 29 30 31 32 33 34 35 36 37 38 39 40 41 42 43 44 45 46 47 48 49 50
000
ASUS45 KBOI 272310
RWRID

IDAHO REGIONAL WEATHER ROUNDUP
NATIONAL WEATHER SERVICE BOISE ID
500 PM MDT THU AUG 27 2015

NOTE: "FAIR" INDICATES FEW OR NO CLOUDS BELOW 12000 FEET
WITH NO SIGNIFICANT WEATHER AND/OR OBSTRUCTIONS TO VISIBILITY

IDZ012-014-280000-
SOUTHWEST IDAHO


CITY           SKY/WX    TMP DP  RH WIND       PRES   REMARKS
BOISE          SUNNY     92  39  15 NW9       30.05F
CALDWELL         N/A     93  43  17 NE5       30.04F
MOUNTAIN HOME  SUNNY     95  31  10 W8G17     30.04F HX  90
$$

IDZ016-017-280000-
SOUTHCENTRAL IDAHO


CITY           SKY/WX    TMP DP  RH WIND       PRES   REMARKS
BURLEY         SUNNY     86  39  19 W10       30.13F
JEROME         SUNNY     87  37  17 W7        30.13F
TWIN FALLS     SUNNY     90  42  18 NW10      30.14F
$$

IDZ019>023-280000-
SOUTHEAST IDAHO


CITY           SKY/WX    TMP DP  RH WIND       PRES   REMARKS
IDAHO FALLS    MOSUNNY   81  45  28 NW21      30.16F THUNDER
POCATELLO      MOSUNNY   90  34  13 SW20      30.14F
REXBURG        MOSUNNY   79  49  34 W3        30.17F
$$

IDZ006-010-011-018-031-032-280000-
CENTRAL IDAHO MOUNTAINS


CITY           SKY/WX    TMP DP  RH WIND       PRES   REMARKS
MCCALL         SUNNY     80  33  18 S10G18    30.18F
HAILEY         MOSUNNY   82  37  20 S14       30.21F
STANLEY          N/A     79  26  14 W8G17     30.27F
SALMON         MOSUNNY   86  48  26 N6        29.99F
CHALLIS        CLOUDY    83  28  13 W9        30.11F HAZE
$$

IDZ002-004-006-007-026-280000-
NORTHERN IDAHO


CITY           SKY/WX    TMP DP  RH WIND       PRES   REMARKS
LEWISTON       SUNNY     93  38  14 VRB3      29.96F
LOWELL           N/A     79  61  53 CALM      29.95F
COEUR D`ALENE  SUNNY     88  41  19 SW12      30.00F
MULLAN PASS    SUNNY     73  36  25 N5        30.23F HAZE
$$


USA.gov is the U.S. government's official web portal to all federal, state and local government web resources and services.